Location: Rumah Sambob
(2.9167°N, 113.9167°E)
Time: 18:50:00
(UTC+00:00)

ARIANE R/B - Pass Details

Date: 06 June 2020
Orbit: 603 x 35876 km, 6.6° (Epoch: 11 July)

Event Time Altitude Azimuth Distance (km) Brightness Sun altitude
Exits shadow 21:49:34 - 279° (W) 3,247 6.2 -6.6°
Reaches altitude 10° 21:51:39 10° 283° (WNW) 2,169 5.4 -6.1°
Maximum altitude 21:55:25 54° 3° (N) 725 3.6 -5.3°
Drops below altitude 10° 21:59:37 10° 82° (E) 2,425 7.7 -4.3°
Sets 22:03:07 0° 87° (E) 4,213 8.9 -3.5°
